• In France
  • List of Countries
  • For 7 days
  • Water Temperature
  • Satellite Maps
  • Weather Map
  • Weather Widgets
  • user-avatar
    Login

    Hourly Weather Gankovo

    Today, 17 July, Tuesday

    Time Temperature Precipitation Wind Pressure Humidity
    00:00 +20°C° 0 mm 2 mps 749 mmHg 86%
    01:00 +19°C° 0 mm 2 mps 749 mmHg 87%
    02:00 +19°C° 0 mm 3 mps 749 mmHg 90%
    03:00 +19°C° 0.5 mm 3 mps 749 mmHg 91%
    04:00 +19°C° 0.5 mm 3 mps 749 mmHg 92%
    05:00 +19°C° 0.5 mm 3 mps 748 mmHg 93%
    06:00 +20°C° 0 mm 3 mps 748 mmHg 89%
    07:00 +22°C° 0 mm 4 mps 748 mmHg 85%
    08:00 +25°C° 0 mm 4 mps 749 mmHg 78%
    09:00 +26°C° 0 mm 5 mps 748 mmHg 71%
    10:00 +27°C° 0 mm 5 mps 748 mmHg 65%
    11:00 +29°C° 0 mm 6 mps 748 mmHg 58%
    12:00 +29°C° 0.1 mm 5 mps 748 mmHg 58%
    13:00 +29°C° 0.1 mm 5 mps 748 mmHg 57%
    14:00 +30°C° 0.1 mm 5 mps 747 mmHg 56%
    15:00 +29°C° 0.4 mm 5 mps 747 mmHg 60%
    16:00 +29°C° 0.4 mm 4 mps 747 mmHg 64%
    17:00 +28°C° 0.4 mm 4 mps 747 mmHg 68%
    18:00 +27°C° 0.2 mm 3 mps 747 mmHg 73%
    19:00 +25°C° 0.2 mm 3 mps 747 mmHg 77%
    20:00 +24°C° 0.2 mm 3 mps 747 mmHg 81%
    21:00 +22°C° 0 mm 3 mps 748 mmHg 81%
    22:00 +21°C° 0 mm 3 mps 748 mmHg 82%
    23:00 +21°C° 0 mm 3 mps 748 mmHg 82%

    Tomorrow, 18 July, Wednesday

    Time Temperature Precipitation Wind Pressure Humidity
    00:00 +20°C° 0 mm 3 mps 748 mmHg 83%
    01:00 +19°C° 0 mm 3 mps 748 mmHg 84%
    02:00 +19°C° 0 mm 3 mps 748 mmHg 84%
    03:00 +18°C° 0 mm 3 mps 748 mmHg 85%
    04:00 +18°C° 0 mm 3 mps 748 mmHg 85%
    05:00 +18°C° 0 mm 3 mps 748 mmHg 85%
    06:00 +20°C° 0 mm 3 mps 748 mmHg 79%
    07:00 +21°C° 0 mm 4 mps 748 mmHg 74%
    08:00 +23°C° 0 mm 4 mps 747 mmHg 68%
    09:00 +25°C° 0 mm 4 mps 747 mmHg 63%
    10:00 +27°C° 0 mm 5 mps 747 mmHg 58%
    11:00 +28°C° 0 mm 5 mps 747 mmHg 52%
    12:00 +28°C° 0.2 mm 5 mps 747 mmHg 53%
    13:00 +29°C° 0.2 mm 5 mps 747 mmHg 54%
    14:00 +29°C° 0.2 mm 5 mps 746 mmHg 54%
    15:00 +28°C° 0.7 mm 5 mps 746 mmHg 58%
    16:00 +28°C° 0.7 mm 4 mps 746 mmHg 62%
    17:00 +27°C° 0.7 mm 4 mps 747 mmHg 66%
    18:00 +25°C° 0.3 mm 3 mps 747 mmHg 72%
    19:00 +24°C° 0.3 mm 3 mps 747 mmHg 77%
    20:00 +21°C° 0.3 mm 2 mps 747 mmHg 82%
    21:00 +21°C° 0.1 mm 2 mps 747 mmHg 85%
    22:00 +20°C° 0.1 mm 2 mps 747 mmHg 87%
    23:00 +19°C° 0.1 mm 2 mps 747 mmHg 90%

    Day after tomorrow, 19 July, Thursday

    Time Temperature Precipitation Wind Pressure Humidity
    00:00 +19°C° 0.1 mm 2 mps 747 mmHg 91%
    01:00 +19°C° 0.1 mm 3 mps 747 mmHg 92%
    02:00 +19°C° 0.1 mm 3 mps 746 mmHg 93%
    03:00 +19°C° 0 mm 3 mps 746 mmHg 93%
    04:00 +18°C° 0 mm 3 mps 746 mmHg 93%
    05:00 +18°C° 0 mm 3 mps 746 mmHg 93%
    06:00 +19°C° 0.6 mm 3 mps 746 mmHg 93%
    07:00 +19°C° 0.6 mm 3 mps 746 mmHg 92%
    08:00 +20°C° 0.6 mm 4 mps 747 mmHg 92%
    09:00 +20°C° 0.1 mm 4 mps 747 mmHg 90%
    10:00 +21°C° 0.1 mm 4 mps 747 mmHg 88%
    11:00 +22°C° 0.1 mm 4 mps 747 mmHg 86%
    12:00 +22°C° 0.5 mm 3 mps 747 mmHg 84%
    13:00 +24°C° 0.5 mm 3 mps 746 mmHg 83%
    14:00 +25°C° 0.5 mm 3 mps 746 mmHg 81%
    15:00 +25°C° 0.4 mm 3 mps 746 mmHg 80%
    16:00 +26°C° 0.4 mm 3 mps 746 mmHg 78%
    17:00 +26°C° 0.4 mm 3 mps 746 mmHg 77%
    18:00 +25°C° 0.1 mm 3 mps 746 mmHg 81%
    19:00 +24°C° 0.1 mm 2 mps 746 mmHg 84%
    20:00 +23°C° 0.1 mm 2 mps 746 mmHg 88%
    21:00 +21°C° 0 mm 2 mps 746 mmHg 91%
    22:00 +20°C° 0 mm 2 mps 746 mmHg 93%
    23:00 +19°C° 0 mm 2 mps 746 mmHg 95%

    20 July, Friday

    Time Temperature Precipitation Wind Pressure Humidity
    00:00 +19°C° 0 mm 2 mps 746 mmHg 96%
    01:00 +19°C° 0 mm 2 mps 746 mmHg 97%
    02:00 +19°C° 0 mm 2 mps 746 mmHg 97%
    03:00 +19°C° 0 mm 2 mps 746 mmHg 97%
    04:00 +19°C° 0 mm 3 mps 746 mmHg 97%
    05:00 +19°C° 0 mm 3 mps 746 mmHg 97%
    06:00 +20°C° 0 mm 3 mps 746 mmHg 95%
    07:00 +20°C° 0 mm 3 mps 746 mmHg 92%
    08:00 +21°C° 0 mm 3 mps 746 mmHg 90%
    09:00 +22°C° 0.2 mm 4 mps 746 mmHg 86%
    10:00 +23°C° 0.2 mm 4 mps 746 mmHg 83%
    11:00 +23°C° 0.2 mm 4 mps 746 mmHg 79%
    12:00 +25°C° 0.6 mm 4 mps 745 mmHg 80%
    13:00 +25°C° 0.6 mm 4 mps 745 mmHg 80%
    14:00 +25°C° 0.6 mm 4 mps 745 mmHg 80%
    15:00 +25°C° 0.7 mm 4 mps 745 mmHg 81%
    16:00 +25°C° 0.7 mm 4 mps 745 mmHg 81%
    17:00 +25°C° 0.7 mm 4 mps 745 mmHg 82%
    18:00 +24°C° 0.4 mm 3 mps 745 mmHg 85%
    19:00 +22°C° 0.4 mm 3 mps 745 mmHg 88%
    20:00 +21°C° 0.4 mm 3 mps 745 mmHg 91%
    21:00 +21°C° 0 mm 3 mps 745 mmHg 92%
    22:00 +20°C° 0 mm 2 mps 745 mmHg 93%
    23:00 +20°C° 0 mm 2 mps 745 mmHg 95%

    21 July, Saturday

    Time Temperature Precipitation Wind Pressure Humidity
    00:00 +19°C° 0 mm 2 mps 745 mmHg 96%
    01:00 +19°C° 0 mm 2 mps 745 mmHg 97%
    02:00 +18°C° 0 mm 2 mps 745 mmHg 98%
    03:00 +18°C° 0.1 mm 2 mps 745 mmHg 98%
    04:00 +18°C° 0.1 mm 2 mps 745 mmHg 98%
    05:00 +18°C° 0.1 mm 2 mps 745 mmHg 98%
    06:00 +19°C° 0.2 mm 2 mps 745 mmHg 96%
    07:00 +19°C° 0.2 mm 2 mps 745 mmHg 95%
    08:00 +20°C° 0.2 mm 2 mps 745 mmHg 93%
    09:00 +20°C° 0.1 mm 2 mps 745 mmHg 91%
    10:00 +21°C° 0.1 mm 2 mps 745 mmHg 89%
    11:00 +23°C° 0.1 mm 1 mps 745 mmHg 87%
    12:00 +23°C° 0.5 mm 1 mps 745 mmHg 86%
    13:00 +23°C° 0.5 mm 1 mps 745 mmHg 86%
    14:00 +24°C° 0.5 mm 1 mps 744 mmHg 85%
    15:00 +24°C° 0.4 mm 1 mps 744 mmHg 85%
    16:00 +24°C° 0.4 mm 1 mps 744 mmHg 86%
    17:00 +24°C° 0.4 mm 1 mps 744 mmHg 86%
    18:00 +24°C° 0.6 mm 1 mps 744 mmHg 89%
    19:00 +23°C° 0.6 mm 2 mps 744 mmHg 91%
    20:00 +21°C° 0.6 mm 2 mps 743 mmHg 94%
    21:00 +20°C° 0.5 mm 2 mps 743 mmHg 95%
    22:00 +20°C° 0.5 mm 2 mps 743 mmHg 96%
    23:00 +19°C° 0.5 mm 2 mps 743 mmHg 96%

    22 July, Sunday

    Time Temperature Precipitation Wind Pressure Humidity
    00:00 +19°C° 0.5 mm 2 mps 743 mmHg 97%
    01:00 +19°C° 0.5 mm 2 mps 743 mmHg 97%
    02:00 +19°C° 0.5 mm 2 mps 743 mmHg 97%
    03:00 +19°C° 1.1 mm 2 mps 743 mmHg 98%
    04:00 +19°C° 1.1 mm 2 mps 743 mmHg 98%
    05:00 +19°C° 1.1 mm 2 mps 743 mmHg 98%
    06:00 +19°C° 1 mm 2 mps 743 mmHg 97%
    07:00 +20°C° 1 mm 2 mps 743 mmHg 97%
    08:00 +21°C° 1 mm 2 mps 743 mmHg 96%
    09:00 +21°C° 0.6 mm 2 mps 743 mmHg 94%
    10:00 +23°C° 0.6 mm 2 mps 743 mmHg 92%
    11:00 +23°C° 0.6 mm 2 mps 742 mmHg 91%
    12:00 +24°C° 0.8 mm 2 mps 742 mmHg 89%
    13:00 +24°C° 0.8 mm 2 mps 742 mmHg 88%
    14:00 +25°C° 0.8 mm 2 mps 742 mmHg 86%
    15:00 +25°C° 0.8 mm 3 mps 742 mmHg 86%
    16:00 +24°C° 0.8 mm 3 mps 742 mmHg 87%
    17:00 +24°C° 0.8 mm 3 mps 742 mmHg 87%
    18:00 +22°C° 0.7 mm 3 mps 742 mmHg 89%
    19:00 +22°C° 0.7 mm 3 mps 742 mmHg 91%
    20:00 +21°C° 0.7 mm 3 mps 743 mmHg 93%
    21:00 +20°C° 0 mm 3 mps 743 mmHg 94%
    22:00 +19°C° 0 mm 3 mps 743 mmHg 95%
    23:00 +19°C° 0 mm 3 mps 743 mmHg 96%
    Show more